Find Qianfan 07-05

NORAD ID: 68640 Int'l Des: 2026-075 Owner: YUANX Country: CN Constellation: qianfan operational
LEOCIRCULARPOLAR

Live Position

Loading 3D Globe...

About Qianfan 07-05

Description loading...

Upcoming Passes

Passes for default location (London). Set your location on the main map for personalized predictions.

Altitude History

Loading altitude history...

Two-Line Element Set

1 68640U 26075E 26111.66016286 .00000185 00000-0 80922-4 0 9999
2 68640 88.9904 327.0911 0015392 167.7472 192.4095 14.19429048 2005
Epoch: Apr 21, 2026 • Age: 10 hours

Current Status

Altitude 842.0 km
Velocity 7.43 km/s
Sub-Earth Point -50.44°S, 82.62°W
Launch Date Apr 7, 2026
Age 15 days
Type internet

Technical Details

Classification Payload
Mass 267.00 kg
Dry Mass 267.00 kg
Total Mass 267.00 kg
Length 0.30 m
Diameter 3.00 m
Span 10.00 m
Shape Box+pan
Manufacturer SECM
Bus Type Qianfan
Phase Status In Orbit
Owner/State YUANX/CN

Most Searched